Location: Newark
(59.8814°N, 10.8258°E)
Time: 13:40:27
(UTC+00:00)

Envisat - Pass Details

Date: 31 January 2020
Orbit: 764 x 766 km, 98.1° (Epoch: 24 February)

Event Time Altitude Azimuth Distance (km) Brightness Sun altitude
Rises 17:08:34 0° 176° (S) 3,227 6.4 -12.3°
Reaches altitude 10° 17:10:54 10° 180° (S) 2,304 5.6 -12.6°
Maximum altitude 17:15:54 56° 259° (W) 915 3.8 -13.2°
Drops below altitude 10° 17:20:56 10° 338° (NNW) 2,319 5.6 -13.8°
Sets 17:23:18 0° 343° (NNW) 3,249 6.3 -14.1°
